GW2067 Weather Reports


Display with metric or nautical units.
time (UTC)temp
F
wind
direction
speed
MPH
gust
MPH
rain 1hr
in
rain 24hr
in
rain mn
in
humidity
%
barometer
mb
20260508045939 37 263 2.0 2.0 0.00 0.00 0.00 99 1007.7
20260508045437 37 301 2.0 2.0 0.00 0.00 0.00 99 1007.9
20260508044934 37 348 0.0 1.0 0.00 0.00 0.00 99 1007.8
20260508044431 37 329 0.0 1.0 0.00 0.00 0.00 99 1007.7
20260508043926 37 266 2.0 2.0 0.00 0.00 0.00 99 1007.7
20260508043424 37 273 3.0 3.0 0.00 0.00 0.00 99 1007.8
20260508042920 37 265 3.0 3.0 0.00 0.00 0.00 99 1007.8
20260508042418 37 338 1.0 2.0 0.00 0.00 0.00 99 1007.7
20260508041915 37 2 1.0 2.0 0.00 0.00 0.00 99 1007.6
20260508041411 37 315 1.0 2.0 0.00 0.00 0.00 99 1007.6
20260508040908 37 306 2.0 3.0 0.00 0.00 0.00 99 1007.6
20260508040405 37 295 2.0 2.0 0.00 0.00 0.00 99 1007.8
20260508035903 37 281 2.0 2.0 0.00 0.14 0.14 99 1007.5
20260508035400 37 270 6.0 7.0 0.00 0.14 0.14 99 1007.6
20260508034856 37 318 1.0 1.0 0.00 0.14 0.14 99 1007.3
20260508034353 37 264 2.0 2.0 0.00 0.14 0.14 99 1007.5
20260508033844 37 267 2.0 2.0 0.00 0.14 0.14 99 1007.5
20260508033343 37 275 4.0 5.0 0.00 0.14 0.14 99 1007.4
20260508032840 37 259 3.0 5.0 0.00 0.14 0.14 99 1007.5
20260508032337 37 283 5.0 6.0 0.00 0.14 0.14 99 1007.5
20260508031833 37 330 1.0 2.0 0.00 0.14 0.14 99 1007.4
20260508031331 37 299 1.0 2.0 0.00 0.14 0.14 99 1007.1
20260508030827 37 264 2.0 2.0 0.00 0.14 0.14 99 1007.4
20260508030324 37 230 5.0 6.0 0.00 0.14 0.14 99 1007.2
20260508025821 37 283 1.0 1.0 0.00 0.14 0.14 99 1007.3
20260508025318 37 316 1.0 1.0 0.00 0.14 0.14 99 1007.4
20260508024815 37 325 2.0 5.0 0.00 0.14 0.14 99 1007.3
20260508024311 37 275 4.0 5.0 0.00 0.14 0.14 99 1007.5
20260508023808 37 323 2.0 2.0 0.00 0.14 0.14 99 1007.3
20260508023305 37 320 2.0 3.0 0.00 0.14 0.14 99 1007.3
20260508022801 37 314 2.0 2.0 0.00 0.14 0.14 99 1007.3
20260508022257 37 277 3.0 3.0 0.00 0.14 0.14 99 1007.3
20260508021755 37 312 1.0 1.0 0.00 0.14 0.14 99 1007.3
20260508021250 37 266 6.0 7.0 0.00 0.14 0.14 99 1007.3
20260508020747 37 293 3.0 3.0 0.00 0.14 0.14 99 1007.4
20260508020245 37 285 2.0 2.0 0.00 0.14 0.14 99 1007.1
20260508015741 37 307 2.0 2.0 0.00 0.14 0.14 99 1007.4
20260508015238 37 327 2.0 3.0 0.00 0.14 0.14 99 1007.3
20260508014735 37 275 2.0 2.0 0.00 0.14 0.14 99 1007.1
20260508014232 37 185 2.0 3.0 0.00 0.14 0.14 99 1007.3
20260508013728 37 296 2.0 3.0 0.00 0.14 0.14 99 1007.3
20260508013224 38 220 4.0 5.0 0.00 0.14 0.14 99 1007.5
20260508012722 38 252 4.0 5.0 0.00 0.14 0.14 99 1007.3
20260508012219 38 244 3.0 3.0 0.00 0.14 0.14 99 1007.4
20260508011717 38 310 2.0 2.0 0.00 0.14 0.14 99 1007.3
20260508011214 38 278 6.0 7.0 0.00 0.14 0.14 99 1007.2
20260508010711 38 293 4.0 5.0 0.00 0.14 0.14 99 1007.3
20260508010209 38 265 7.0 9.0 0.00 0.14 0.14 99 1007.4
20260508005706 38 249 5.0 6.0 0.00 0.14 0.14 99 1007.1
20260508005202 38 228 4.0 6.0 0.00 0.14 0.14 99 1007.1
20260508004658 38 304 4.0 5.0 0.00 0.14 0.14 99 1007.3
20260508004154 37 238 3.0 6.0 0.00 0.14 0.14 99 1007.2
20260508003651 37 317 3.0 3.0 0.00 0.14 0.14 99 1007.1
20260508003149 37 289 4.0 5.0 0.00 0.14 0.14 99 1007.0
20260508002645 37 311 2.0 2.0 0.00 0.14 0.14 99 1007.2
20260508002143 37 256 3.0 3.0 0.00 0.14 0.14 99 1007.1
20260508001638 37 301 2.0 2.0 0.00 0.14 0.14 99 1007.2
20260508001134 37 320 2.0 3.0 0.00 0.14 0.14 99 1006.8
20260508000630 38 277 3.0 5.0 0.00 0.14 0.14 99 1006.9
20260508000128 38 308 3.0 3.0 0.00 0.14 0.14 99 1007.1
20260507235624 38 264 2.0 2.0 0.00 0.14 0.14 99 1007.0
20260507235122 38 300 2.0 2.0 0.00 0.14 0.14 99 1006.9
20260507234618 38 279 1.0 2.0 0.00 0.14 0.14 99 1007.1
20260507234115 38 329 2.0 2.0 0.00 0.14 0.14 99 1007.1
20260507233612 38 310 2.0 2.0 0.00 0.14 0.14 99 1006.9
20260507233110 38 296 3.0 3.0 0.00 0.14 0.14 99 1007.0
20260507232611 38 280 1.0 2.0 0.00 0.14 0.14 99 1006.9
20260507232104 39 315 2.0 2.0 0.00 0.14 0.14 98 1006.8
20260507231600 39 333 0.0 0.0 0.00 0.14 0.14 97 1006.8
20260507231057 39 292 3.0 3.0 0.00 0.14 0.14 97 1006.9
20260507230553 39 284 4.0 5.0 0.00 0.14 0.14 96 1007.0
20260507230050 39 314 3.0 3.0 0.00 0.14 0.14 96 1006.9
20260507225545 39 242 3.0 5.0 0.00 0.14 0.14 96 1006.7
20260507225042 39 290 6.0 7.0 0.00 0.14 0.14 95 1006.8
20260507224537 40 258 4.0 5.0 0.00 0.14 0.14 95 1007.0
20260507224034 40 261 6.0 7.0 0.00 0.14 0.14 95 1006.8
20260507223531 40 257 4.0 6.0 0.00 0.14 0.14 95 1007.0
20260507223028 40 158 3.0 3.0 0.00 0.14 0.14 96 1006.7
20260507222525 40 314 3.0 3.0 0.00 0.14 0.14 96 1007.0
20260507222021 40 300 4.0 6.0 0.00 0.14 0.14 95 1006.7
20260507221517 40 291 2.0 2.0 0.00 0.14 0.14 95 1006.8
20260507221015 40 327 1.0 1.0 0.00 0.14 0.14 96 1006.8
20260507220512 39 320 1.0 2.0 0.00 0.14 0.14 97 1006.6
20260507220009 40 330 0.0 1.0 0.00 0.14 0.14 96 1006.9
20260507215505 39 304 3.0 3.0 0.00 0.14 0.14 94 1006.7
20260507215003 40 290 1.0 1.0 0.00 0.14 0.14 96 1006.6
20260507214500 39 275 4.0 5.0 0.00 0.14 0.14 94 1006.6
20260507213955 39 236 4.0 5.0 0.00 0.14 0.14 95 1006.7
20260507213452 40 321 3.0 3.0 0.00 0.14 0.14 95 1006.6
20260507212949 40 245 5.0 6.0 0.00 0.14 0.14 95 1006.6
20260507212444 41 257 4.0 6.0 0.00 0.14 0.14 95 1006.5
20260507211942 42 268 9.0 11.0 0.00 0.14 0.14 93 1006.3
20260507211438 43 298 3.0 3.0 0.00 0.14 0.14 90 1006.2
20260507210935 43 284 3.0 3.0 0.00 0.14 0.14 89 1005.9
20260507210432 43 332 1.0 2.0 0.00 0.14 0.14 91 1006.0
20260507205929 43 262 3.0 5.0 0.00 0.14 0.14 90 1006.0
20260507205426 43 262 3.0 3.0 0.00 0.14 0.14 90 1005.9
20260507204922 43 302 2.0 2.0 0.00 0.14 0.14 91 1005.7
20260507204418 43 312 4.0 5.0 0.00 0.14 0.14 91 1005.8
20260507203916 43 299 5.0 6.0 0.00 0.14 0.14 89 1005.5
20260507203414 43 303 3.0 6.0 0.00 0.14 0.14 89 1005.9
20260507202910 44 286 3.0 5.0 0.00 0.14 0.14 85 1005.8
20260507202407 46 263 3.0 5.0 0.00 0.14 0.14 87 1005.6
20260507201902 46 300 2.0 3.0 0.00 0.14 0.14 88 1005.6
20260507201358 46 297 3.0 3.0 0.00 0.14 0.14 89 1005.8
20260507200854 47 351 1.0 2.0 0.00 0.14 0.14 91 1005.6
20260507200350 46 262 4.0 6.0 0.00 0.14 0.14 89 1005.6
20260507195847 45 280 2.0 2.0 0.00 0.14 0.14 93 1005.9
20260507195344 44 317 2.0 2.0 0.00 0.14 0.14 95 1005.7
20260507194841 43 350 2.0 2.0 0.00 0.14 0.14 97 1005.8
20260507194338 43 335 1.0 1.0 0.00 0.14 0.14 98 1005.8
20260507193834 43 232 1.0 2.0 0.00 0.14 0.14 99 1006.0
20260507193332 43 268 4.0 5.0 0.00 0.14 0.14 97 1006.0
20260507192827 44 316 1.0 2.0 0.00 0.14 0.14 98 1005.9
20260507192324 44 329 1.0 1.0 0.00 0.14 0.14 97 1006.0
20260507191821 43 307 1.0 1.0 0.00 0.14 0.14 99 1006.0
20260507191317 42 328 1.0 2.0 0.00 0.14 0.14 99 1006.1
20260507190814 42 1 1.0 2.0 0.00 0.14 0.14 99 1006.1
20260507190312 43 274 3.0 3.0 0.00 0.14 0.14 99 1006.1
20260507185811 43 294 3.0 6.0 0.00 0.14 0.14 99 1006.2
20260507185307 43 298 1.0 1.0 0.00 0.14 0.14 99 1006.2
20260507184804 42 344 2.0 2.0 0.00 0.14 0.14 99 1006.3
20260507184303 41 302 0.0 1.0 0.00 0.14 0.14 99 1006.7
20260507183759 40 336 0.0 1.0 0.00 0.14 0.14 99 1006.8
20260507183256 40 297 0.0 0.0 0.00 0.14 0.14 99 1006.9
20260507182753 40 322 1.0 2.0 0.00 0.14 0.14 99 1006.9
20260507182248 40 310 1.0 1.0 0.00 0.14 0.14 99 1006.7
20260507181745 39 302 1.0 2.0 0.00 0.14 0.14 99 1006.9
20260507181241 39 298 1.0 2.0 0.00 0.14 0.14 99 1006.8
20260507180738 39 315 3.0 6.0 0.00 0.14 0.14 99 1006.7
20260507180235 39 342 5.0 9.0 0.07 0.14 0.14 99 1006.8
20260507175730 39 288 5.0 7.0 0.07 0.14 0.14 99 1006.7
20260507175228 39 293 5.0 6.0 0.00 0.13 0.13 99 1006.9
20260507174725 39 182 3.0 5.0 0.05 0.13 0.13 99 1007.0
20260507174223 40 239 5.0 7.0 0.05 0.13 0.13 99 1006.6
20260507173720 40 319 3.0 5.0 0.07 0.12 0.12 99 1006.9
20260507173217 40 267 5.0 8.0 0.07 0.12 0.12 99 1006.7
20260507172714 40 291 3.0 5.0 0.05 0.11 0.11 99 1006.6
20260507172210 40 293 3.0 3.0 0.05 0.11 0.11 99 1006.6
20260507171705 40 344 4.0 6.0 0.00 0.10 0.10 99 1006.6
20260507171203 40 267 9.0 13.0 0.00 0.10 0.10 99 1006.5
20260507170659 39 316 1.0 2.0 0.07 0.10 0.10 99 1006.7
20260507170157 39 298 3.0 3.0 0.07 0.10 0.10 99 1006.7
20260507165652 39 284 3.0 3.0 0.00 0.09 0.09 99 1006.7
20260507165148 39 344 2.0 3.0 0.17 0.09 0.09 99 1006.5
20260507164644 39 294 2.0 3.0 0.47 0.09 0.09 99 1006.8
20260507164142 39 315 3.0 5.0 0.42 0.07 0.07 99 1006.9
20260507163638 41 333 2.0 2.0 0.12 0.02 0.02 99 1006.7
20260507163137 42 297 4.0 6.0 0.00 0.00 0.00 97 1006.5
20260507162632 44 240 4.0 5.0 0.00 0.00 0.00 96 1006.5
20260507162128 46 279 4.0 6.0 0.00 0.00 0.00 95 1006.2
20260507161625 45 331 1.0 1.0 0.00 0.00 0.00 96 1006.2
20260507161122 45 299 2.0 2.0 0.00 0.00 0.00 96 1006.2
20260507160618 45 178 2.0 2.0 0.00 0.00 0.00 95 1006.3
20260507160114 45 247 3.0 3.0 0.00 0.00 0.00 97 1006.6
20260507155610 43 261 1.0 2.0 0.00 0.00 0.00 98 1006.7
20260507155107 43 287 1.0 1.0 0.00 0.00 0.00 99 1006.8
20260507154604 43 315 1.0 1.0 0.00 0.00 0.00 98 1006.7
20260507154101 44 308 0.0 1.0 0.00 0.00 0.00 99 1006.9
20260507153557 43 281 3.0 3.0 0.00 0.00 0.00 99 1006.9
20260507153054 41 268 3.0 3.0 0.00 0.00 0.00 99 1007.1
20260507152550 41 258 2.0 2.0 0.00 0.00 0.00 99 1007.3
20260507152046 42 327 1.0 1.0 0.00 0.00 0.00 99 1007.0
20260507151542 41 318 1.0 2.0 0.00 0.00 0.00 99 1007.4
20260507151040 41 335 1.0 1.0 0.00 0.00 0.00 99 1007.2
20260507150537 41 286 4.0 6.0 0.00 0.00 0.00 99 1007.2
20260507150033 42 287 3.0 3.0 0.00 0.00 0.00 99 1007.4
20260507145528 42 314 5.0 7.0 0.00 0.00 0.00 99 1007.3
20260507145026 41 305 2.0 2.0 0.00 0.00 0.00 99 1007.2
20260507144522 41 320 4.0 6.0 0.00 0.00 0.00 99 1007.2
20260507144020 41 327 0.0 1.0 0.00 0.00 0.00 99 1007.1
20260507143517 41 267 5.0 7.0 0.00 0.00 0.00 99 1007.0
20260507143015 41 310 1.0 1.0 0.00 0.00 0.00 99 1007.2
20260507142510 41 292 1.0 2.0 0.00 0.00 0.00 99 1007.2
20260507142007 41 292 2.0 2.0 0.00 0.00 0.00 99 1007.1
20260507141503 41 306 1.0 2.0 0.00 0.00 0.00 99 1007.1
20260507140959 40 296 4.0 5.0 0.00 0.00 0.00 99 1007.3
20260507140456 40 265 1.0 3.0 0.00 0.00 0.00 99 1007.5
20260507135954 41 272 2.0 2.0 0.00 0.00 0.00 99 1007.3
20260507135451 40 269 2.0 2.0 0.00 0.00 0.00 99 1007.5
20260507134948 40 353 2.0 2.0 0.00 0.00 0.00 99 1007.4
20260507134444 40 288 3.0 3.0 0.00 0.00 0.00 99 1007.3
20260507133940 40 306 2.0 3.0 0.00 0.00 0.00 99 1007.1
20260507133436 40 291 2.0 2.0 0.00 0.00 0.00 99 1007.1
20260507132935 40 221 2.0 5.0 0.00 0.00 0.00 99 1007.4
20260507132431 40 299 1.0 2.0 0.00 0.00 0.00 99 1007.3
20260507131927 40 300 2.0 2.0 0.00 0.00 0.00 99 1007.4
20260507131425 40 285 3.0 3.0 0.00 0.00 0.00 99 1007.3
20260507130922 40 301 1.0 1.0 0.00 0.00 0.00 99 1007.4
20260507130419 40 262 3.0 5.0 0.00 0.00 0.00 99 1007.4
20260507125918 39 299 2.0 2.0 0.00 0.00 0.00 99 1007.5
20260507125415 39 282 1.0 1.0 0.00 0.00 0.00 99 1007.5
20260507124912 39 251 4.0 6.0 0.00 0.00 0.00 99 1007.2
20260507124408 39 283 2.0 2.0 0.00 0.00 0.00 99 1007.5
20260507123907 39 257 3.0 3.0 0.00 0.00 0.00 99 1007.3
20260507123403 39 309 2.0 2.0 0.00 0.00 0.00 99 1007.2
20260507122900 40 310 3.0 3.0 0.00 0.00 0.00 99 1007.6
20260507122355 40 273 2.0 2.0 0.00 0.00 0.00 99 1007.4
20260507121852 40 249 4.0 5.0 0.00 0.00 0.00 99 1007.4
20260507121347 39 342 0.0 0.0 0.00 0.00 0.00 99 1007.4
20260507120844 39 267 3.0 3.0 0.00 0.00 0.00 99 1007.5
20260507120340 39 260 2.0 3.0 0.00 0.00 0.00 99 1007.6
20260507115837 39 267 4.0 5.0 0.00 0.00 0.00 99 1007.5
20260507115332 39 281 2.0 3.0 0.00 0.00 0.00 99 1007.3
20260507114828 39 268 1.0 2.0 0.00 0.00 0.00 99 1007.3
20260507114326 39 292 1.0 1.0 0.00 0.00 0.00 99 1007.3
20260507113823 39 261 3.0 5.0 0.00 0.00 0.00 99 1007.4
20260507113320 39 287 1.0 2.0 0.00 0.00 0.00 99 1007.3
20260507112818 39 318 2.0 3.0 0.00 0.00 0.00 99 1007.4
20260507112314 39 322 1.0 1.0 0.00 0.00 0.00 99 1007.4
20260507111812 39 326 2.0 2.0 0.00 0.00 0.00 99 1007.3
20260507111308 38 270 1.0 1.0 0.00 0.00 0.00 99 1007.3
20260507110804 38 253 4.0 6.0 0.00 0.00 0.00 99 1007.4
20260507110301 38 293 2.0 2.0 0.00 0.00 0.00 99 1007.3
20260507105758 39 338 2.0 2.0 0.00 0.00 0.00 99 1007.5
20260507105254 38 271 3.0 3.0 0.00 0.00 0.00 99 1007.5
20260507104752 38 327 0.0 0.0 0.00 0.00 0.00 99 1007.5
20260507104248 38 259 3.0 3.0 0.00 0.00 0.00 99 1007.2
20260507103744 38 287 1.0 1.0 0.00 0.00 0.00 99 1007.0
20260507103240 38 291 3.0 3.0 0.00 0.00 0.00 99 1007.2
20260507102737 38 312 3.0 5.0 0.00 0.00 0.00 99 1007.1
20260507102233 38 293 2.0 3.0 0.00 0.00 0.00 99 1007.4
20260507101730 38 279 2.0 3.0 0.00 0.00 0.00 99 1007.4
20260507101225 38 290 1.0 1.0 0.00 0.00 0.00 99 1007.3
20260507100722 38 330 3.0 3.0 0.00 0.00 0.00 99 1007.4
20260507100221 38 312 1.0 1.0 0.00 0.00 0.00 99 1007.5
20260507095718 38 301 1.0 1.0 0.00 0.00 0.00 99 1007.3
20260507095215 38 0 0.0 0.0 0.00 0.00 0.00 99 1007.4
20260507094712 38 302 3.0 5.0 0.00 0.00 0.00 99 1007.3
20260507094209 38 284 1.0 1.0 0.00 0.00 0.00 99 1007.2
20260507093705 38 5 0.0 0.0 0.00 0.00 0.00 99 1007.3
20260507093204 38 55 3.0 5.0 0.00 0.00 0.00 99 1007.4
20260507092701 38 35 0.0 0.0 0.00 0.00 0.00 99 1007.3
20260507092157 38 349 2.0 2.0 0.00 0.00 0.00 99 1007.4
20260507091654 38 353 0.0 0.0 0.00 0.00 0.00 99 1007.3
20260507091150 38 348 0.0 0.0 0.00 0.00 0.00 99 1007.4
20260507090645 38 2 0.0 0.0 0.00 0.00 0.00 99 1007.4
20260507090143 38 336 0.0 0.0 0.00 0.00 0.00 99 1007.1
20260507085640 38 33 0.0 0.0 0.00 0.00 0.00 99 1007.2
20260507085137 38 268 1.0 2.0 0.00 0.00 0.00 99 1007.2
20260507084633 38 328 1.0 2.0 0.00 0.00 0.00 99 1007.5
20260507084130 38 255 1.0 1.0 0.00 0.00 0.00 99 1007.2
20260507083627 38 5 1.0 1.0 0.00 0.00 0.00 99 1007.2
20260507083124 38 309 0.0 0.0 0.00 0.00 0.00 99 1007.1
20260507082619 38 343 0.0 0.0 0.00 0.00 0.00 99 1007.1
20260507082116 38 334 1.0 1.0 0.00 0.00 0.00 99 1007.3
20260507081613 38 330 0.0 1.0 0.00 0.00 0.00 99 1007.2
20260507081109 38 333 0.0 1.0 0.00 0.00 0.00 99 1007.3
20260507080606 38 336 1.0 1.0 0.00 0.00 0.00 99 1007.3
20260507075557 37 309 0.0 1.0 0.00 0.00 0.00 99 1007.3
20260507075054 37 304 1.0 1.0 0.00 0.00 0.00 99 1007.3
20260507074551 37 333 0.0 1.0 0.00 0.00 0.00 99 1007.2
20260507074049 37 320 1.0 1.0 0.00 0.00 0.00 99 1007.3
20260507073545 38 258 4.0 6.0 0.00 0.00 0.00 99 1007.4
20260507073041 37 249 4.0 6.0 0.00 0.00 0.00 99 1007.3
20260507072539 37 276 3.0 3.0 0.00 0.00 0.00 99 1007.3
20260507072036 37 233 5.0 7.0 0.00 0.00 0.00 99 1007.3
20260507071533 37 254 2.0 2.0 0.00 0.00 0.00 99 1007.1
20260507071030 37 279 2.0 2.0 0.00 0.00 0.00 99 1007.1
20260507070527 37 257 3.0 3.0 0.00 0.00 0.00 99 1007.2
20260507070024 37 290 4.0 5.0 0.00 0.00 0.00 99 1007.1
20260507065520 37 242 4.0 5.0 0.00 0.00 0.00 99 1007.3
20260507065018 37 305 1.0 1.0 0.00 0.00 0.00 99 1007.2
20260507064515 38 286 6.0 8.0 0.00 0.00 0.00 99 1007.1
20260507064014 38 258 6.0 7.0 0.00 0.00 0.00 99 1007.2
20260507063510 38 251 1.0 2.0 0.00 0.00 0.00 99 1007.3
20260507063008 38 236 5.0 6.0 0.00 0.00 0.00 99 1007.2
20260507062504 38 243 3.0 3.0 0.00 0.00 0.00 99 1007.2
20260507062002 38 275 3.0 3.0 0.00 0.00 0.00 99 1007.5
20260507061459 38 277 5.0 6.0 0.00 0.00 0.00 99 1007.7
20260507060958 38 326 2.0 3.0 0.00 0.00 0.00 99 1007.7
20260507060454 38 302 5.0 6.0 0.00 0.00 0.00 99 1007.7
20260507055951 38 274 3.0 3.0 0.00 0.00 0.00 99 1007.6
20260507055446 38 251 3.0 6.0 0.00 0.00 0.00 99 1007.7
20260507054943 38 327 4.0 5.0 0.00 0.00 0.00 99 1008.0
20260507054439 38 294 5.0 7.0 0.00 0.00 0.00 99 1007.7
20260507053936 38 315 3.0 3.0 0.00 0.00 0.00 99 1007.9
20260507053434 38 230 5.0 6.0 0.00 0.00 0.00 99 1008.0
20260507052932 38 265 5.0 6.0 0.00 0.00 0.00 99 1008.0
20260507052430 38 282 3.0 5.0 0.00 0.00 0.00 99 1008.1
20260507051927 38 12 5.0 7.0 0.00 0.00 0.00 99 1008.2
20260507051424 38 282 4.0 6.0 0.00 0.00 0.00 99 1008.0
20260507050921 38 277 3.0 3.0 0.00 0.00 0.00 99 1008.3
20260507050418 38 270 2.0 3.0 0.00 0.00 0.00 99 1008.3